Find Starlink 3399

NORAD ID: 51121 Int'l Des: 2022-005 Owner: SPXS Country: US Constellation: starlink operational
LEOCIRCULAR

Live Position

Loading 3D Globe...

About Starlink 3399

Description loading...

Upcoming Passes

Passes for default location (London). Set your location on the main map for personalized predictions.

Altitude History

Loading altitude history...

Two-Line Element Set

1 51121U 22005T 26106.75860200 -.00007688 00000-0 -46514-3 0 9996
2 51121 53.2160 118.2331 0001243 75.3961 284.7169 15.08866602234625
Epoch: Apr 16, 2026 • Age: 18 hours

Current Status

Altitude 551.9 km
Velocity 7.59 km/s
Sub-Earth Point -35.85°S, 68.8°W
Launch Date Jan 19, 2022
Age 4.2 years
Type internet

Technical Details

Classification Payload
Mass 297.00 kg
Dry Mass 275.00 kg
Total Mass 297.00 kg
Length 0.20 m
Diameter 2.80 m
Span 9.00 m
Shape Box + pan
Manufacturer SPXS
Bus Type Starlink
Phase Status In Orbit
Owner/State SPXS/US

Most Searched